This is the latest recevied weather packets stored in our database for station/object KR4BRU. If no packets are shown the sender has not sent any weather packets the latest 10 day(s).
| Time | Temp. | Humidity | Pressure | Rain* | Wind** | Luminosity | Snow |
|---|---|---|---|---|---|---|---|
| 1777781243 | 11.11° C | 68% | 1014.7 hPa | 0 mm | - | 0 W/m² | - |
| 1777780643 | 11.11° C | 65% | 1014.6 hPa | 0 mm | - | 0 W/m² | - |
| 1777780044 | 12.22° C | 63% | 1014.7 hPa | 0 mm | - | 0 W/m² | - |
| 1777779438 | 12.22° C | 61% | 1014.6 hPa | 0 mm | - | 0 W/m² | - |
| 1777778834 | 12.78° C | 59% | 1014.5 hPa | 0 mm | - | 0 W/m² | - |
| 1777778228 | 12.78° C | 57% | 1014.5 hPa | 0 mm | - | 0 W/m² | - |
| 1777777628 | 13.33° C | 56% | 1014.5 hPa | 0 mm | - | 0 W/m² | - |
| 1777777027 | 13.33° C | 55% | 1014.5 hPa | 0 mm | - | 0 W/m² | - |
| 1777776427 | 13.89° C | 54% | 1014.3 hPa | 0 mm | - | 0 W/m² | - |
| 1777775827 | 13.89° C | 52% | 1014.3 hPa | 0 mm | - | 0 W/m² | - |
| 1777775226 | 14.44° C | 50% | 1014 hPa | 0 mm | - | 0 W/m² | - |
| 1777774622 | 14.44° C | 48% | 1014.1 hPa | 0 mm | - | 0 W/m² | - |
| 1777774022 | 14.44° C | 47% | 1013.9 hPa | 0 mm | - | 0 W/m² | - |
| 1777773421 | 14.44° C | 46% | 1013.9 hPa | 0 mm | - | 0 W/m² | - |
| 1777772820 | 15° C | 45% | 1013.7 hPa | 0 mm | - | 0 W/m² | - |
| 1777772215 | 15.56° C | 43% | 1013.3 hPa | 0 mm | - | 0 W/m² | - |
| 1777771615 | 15.56° C | 42% | 1013.3 hPa | 0 mm | - | 0 W/m² | - |
| 1777771014 | 15.56° C | 43% | 1013.2 hPa | 0 mm | - | 0 W/m² | - |
| 1777770413 | 15.56° C | 42% | 1013.1 hPa | 0 mm | - | 0 W/m² | - |
| 1777769814 | 15.56° C | 40% | 1012.9 hPa | 0 mm | - | 0 W/m² | - |
| 1777769212 | 15° C | 50% | 1012.8 hPa | 0 mm | - | 0 W/m² | - |
| 1777768608 | 15° C | 48% | 1012.3 hPa | 0 mm | - | 0 W/m² | - |
| 1777768007 | 15° C | 46% | 1012.1 hPa | 0 mm | - | 1 W/m² | - |
| 1777767405 | 15.56° C | 46% | 1012.2 hPa | 0 mm | - | 4 W/m² | - |
| 1777766800 | 15.56° C | 46% | 1012 hPa | 0 mm | - | 9 W/m² | - |
* Rain latest hour (hover to see other rain measurements)
** Current wind speed in m/s (hover to see current wind gust speed)